Location: Mahannah Oil Field
(37.4664°N, 96.6003°W)
Time: 01:57:39
(UTC+00:00)

deb Explorer IX - Pass Details

Date: 23 January 2021
Orbit: 537 x 1102 km, 38.8° (Epoch: 25 February)

Event Time Altitude Azimuth Distance (km) Brightness Sun altitude
Rises 23:49:51 0° 229° (SW) 3,757 ? -2.6°
Reaches altitude 10° 23:52:48 10° 224° (SW) 2,736 ? -3.2°
Maximum altitude 23:59:00 45° 154° (SSE) 1,203 ? -4.3°
Drops below altitude 10° 00:04:21 10° 83° (E) 2,368 ? -5.3°
Enters shadow 00:05:17 - 80° (E) 2,689 ? -5.5°
Sets 00:06:45 0° 77° (ENE) 3,209 - -5.7°
